Location: Newark
(50.8922°N, 11.6094°E)
Time: 13:37:41
(UTC+00:00)

N. Korean satellite - Pass Details

Date: 03 February 2020
Orbit: 456 x 505 km, 97.2° (Epoch: 24 February)

Event Time Altitude Azimuth Distance (km) Brightness Sun altitude
Rises 17:12:27 0° 209° (SSW) 2,473 10.8 -10.5°
Reaches altitude 10° 17:15:12 10° 235° (SW) 1,611 10.4 -10.9°
Maximum altitude 17:17:12 15° 270° (W) 1,360 10.1 -11.2°
Drops below altitude 10° 17:19:14 10° 306° (NW) 1,632 9.9 -11.5°
Sets 17:22:04 0° 331° (NNW) 2,527 10.4 -11.9°
